Starlink 3617

operational
NORAD ID: 51780 Int'l Des: 2022-017 Owner: SPXS Country: US Constellation: starlink
LEOCIRCULAR

About Starlink 3617

Description loading...

Live Position

Loading 3D Globe...

Upcoming Passes

Altitude History

Altitude vs Time

uPlot chart will show altitude changes over time

Two-Line Element Set

1 51780U 22017N 25259.10033306 .00001836 00000-0 13339-3 0 9992
2 51780 53.2189 42.8730 0001207 87.4147 272.6984 15.08840620196060
Epoch: Sep 16, 2025 • Age: 8 hours

Current Status

Altitude 544.2 km
Velocity 7.60 km/s
Sub-Earth Point 47.07°N, 9.67°E
Launch Date Feb 25, 2022
Age 3.5 years
Type internet

Technical Details

Classification Payload
Mass 297.00 kg
Dry Mass 275.00 kg
Total Mass 297.00 kg
Length 0.20 m
Diameter 2.80 m
Span 9.00 m
Shape Box + pan
Manufacturer SPXS
Bus Type Starlink
Phase Status In Orbit
Owner/State SPXS/US

Large Constellations

Loading constellations...